Lapse_Rate
6.4 5.9 5.7 5.4 4.9 4.3 4.3 4.5 4.7 5.1 5.3 5.5 5.7 5.8 5.8 5.7 5.7 5.8 5.8 5.8 5.9 5.8 5.9 6.1 6.4 6.6 6.6 6.7 6.6 6.5 6.3 6.2 6.0 6.1 6.1 5.9 5.9 5.9 5.8 5.8 5.7 5.6 5.5
6.1 5.9 5.6 5.4 4.9 4.5 4.4 4.5 4.7 5.0 5.3 5.4 5.5 5.7 5.6 5.6 5.6 5.6 5.6 5.6 5.6 5.7 6.1 6.3 6.4 6.6 6.7 6.7 6.5 6.4 6.4 6.4 6.2 6.0 5.9 5.9 5.9 6.0 5.9 5.9 5.7 5.6 5.7
6.0 5.8 5.7 5.5 5.0 4.7 4.6 4.6 4.7 4.9 5.1 5.2 5.3 5.5 5.7 5.6 5.5 5.5 5.5 5.4 5.5 5.7 6.0 6.3 6.5 6.7 6.8 6.6 6.4 6.3 6.3 6.2 6.0 5.9 5.9 5.9 5.9 5.8 5.8 5.8 5.7 5.8 5.8
5.8 5.7 5.7 5.6 5.1 4.9 4.9 4.8 4.9 5.1 5.1 5.2 5.3 5.4 5.6 5.6 5.6 5.5 5.5 5.6 5.7 5.9 6.2 6.4 6.5 6.6 6.6 6.4 6.3 6.1 6.1 6.1 5.9 5.9 6.0 5.8 5.7 5.7 5.6 5.4 5.7 5.6 5.5
6.2 5.9 5.7 5.6 5.2 5.1 5.0 4.9 5.1 5.2 5.3 5.4 5.5 5.5 5.5 5.6 5.7 5.7 5.7 5.8 5.7 5.9 6.2 6.4 6.3 6.3 6.3 6.3 6.3 6.2 6.0 6.0 5.9 5.9 5.9 5.7 5.7 5.7 5.8 5.9 5.8 5.4 5.3
6.4 6.2 5.7 5.4 5.3 5.2 5.1 5.1 5.2 5.3 5.5 5.7 5.7 5.7 5.7 5.7 5.7 5.7 5.7 5.8 5.8 5.9 6.1 6.3 6.3 6.2 6.3 6.3 6.2 6.2 6.2 6.0 5.9 5.8 5.8 5.6 5.6 5.7 5.7 5.5 5.3 5.2 5.1
6.5 6.5 6.0 5.6 5.3 5.3 5.3 5.3 5.4 5.5 5.6 5.6 5.7 5.7 5.8 5.7 5.7 5.7 5.8 5.9 6.0 6.0 6.1 6.2 6.1 6.2 6.3 6.4 6.3 6.4 6.5 6.4 6.2 5.9 5.7 5.6 5.4 5.3 5.3 5.1 5.1 5.1 5.0
6.3 6.3 6.3 5.9 5.7 5.5 5.4 5.5 5.6 5.7 5.7 5.6 5.6 5.6 5.7 5.8 5.8 5.8 5.9 5.9 6.1 6.2 6.1 6.1 6.1 6.1 6.2 6.3 6.4 6.5 6.4 6.3 6.1 6.0 5.9 5.9 5.4 5.2 4.9 4.9 4.5 5.0 5.1
6.5 6.2 6.3 6.1 6.0 5.9 5.9 5.9 6.0 5.9 5.8 5.8 5.7 5.7 5.7 5.8 5.8 5.9 6.0 6.2 6.3 6.3 6.2 6.2 6.2 6.2 6.2 6.3 6.3 6.2 6.1 6.0 5.8 5.7 5.8 5.8 5.4 5.2 5.0 4.7 4.5 4.9 5.1
6.6 6.2 6.3 6.2 6.1 6.0 6.0 6.1 6.1 5.9 5.8 5.9 5.9 5.9 5.9 5.9 5.9 6.1 6.2 6.3 6.4 6.3 6.3 6.3 6.4 6.5 6.4 6.3 6.3 6.5 6.1 6.0 5.9 6.0 5.8 5.5 5.4 5.0 5.3 5.3 5.4 5.5 5.6
6.4 6.4 6.3 6.1 6.2 6.2 6.2 6.1 6.0 6.0 6.0 6.0 6.0 6.0 6.0 6.0 6.0 6.2 6.4 6.4 6.5 6.4 6.3 6.5 6.6 6.7 6.6 6.5 6.4 6.4 6.5 6.5 6.2 6.1 5.8 6.2 5.8 5.6 5.8 5.8 5.5 5.6 5.5
6.4 6.4 6.3 6.2 6.1 6.2 6.3 6.2 6.1 6.0 6.0 6.1 6.1 6.1 6.1 6.1 6.0 6.1 6.2 6.2 6.4 6.6 6.6 6.9 6.9 6.7 6.7 6.8 6.7 6.5 6.5 6.5 6.3 6.1 6.1 6.1 5.9 5.9 6.0 5.9 5.9 5.9 5.7
6.5 6.6 6.8 6.7 6.5 6.4 6.3 6.3 6.4 6.4 6.4 6.4 6.4 6.4 6.2 6.0 6.0 6.0 6.1 6.2 6.6 6.9 6.8 6.9 6.9 7.0 6.8 6.7 6.7 6.6 6.6 6.5 6.4 6.2 6.2 6.2 6.3 6.3 6.3 6.0 6.1 6.0 5.8
6.5 6.7 6.8 7.0 6.8 6.5 6.3 6.3 6.5 6.4 6.4 6.3 6.2 6.2 6.3 6.2 6.2 6.1 6.2 6.4 6.8 7.0 7.1 7.1 7.0 7.0 6.9 6.9 6.9 6.9 6.7 6.7 6.6 6.7 6.6 6.5 6.4 6.1 6.2 6.2 6.1 6.1 6.1
6.6 7.0 6.8 6.8 6.7 6.5 6.5 6.3 6.3 6.3 6.2 6.1 6.0 6.1 6.2 6.3 6.4 6.4 6.5 6.4 6.9 7.0 7.0 7.2 7.3 7.2 7.1 7.1 7.1 7.1 7.1 6.9 6.8 6.6 6.5 6.2 6.1 6.1 6.3 6.2 6.4 6.4 6.4
6.8 6.9 6.8 6.8 6.7 6.5 6.5 6.5 6.5 6.4 6.3 6.3 6.2 6.2 6.3 6.3 6.3 6.4 6.6 6.9 7.0 7.0 6.9 7.0 7.2 7.1 7.2 7.1 7.0 7.0 6.9 6.8 6.6 6.5 6.3 6.3 6.4 6.3 6.1 6.4 6.6 6.5 6.4
6.6 6.6 6.5 6.8 6.7 6.4 6.4 6.4 6.4 6.3 6.2 6.4 6.5 6.5 6.4 6.5 6.4 6.6 6.7 6.8 7.1 7.2 7.3 6.9 7.1 7.0 7.1 7.0 7.0 6.8 6.7 6.6 6.4 6.3 6.2 6.3 6.3 6.2 6.3 6.8 6.7 6.7 6.8
6.2 6.5 6.7 6.7 6.6 6.5 6.3 6.4 6.4 6.3 6.3 6.4 6.4 6.5 6.4 6.4 6.6 6.9 7.1 7.1 7.1 7.1 7.2 6.9 6.8 7.2 7.1 6.9 6.8 6.8 6.7 6.6 6.3 6.4 6.4 6.4 6.5 6.7 7.0 7.1 6.9 6.9 6.9
6.6 6.7 6.6 6.8 6.5 6.4 6.3 6.3 6.4 6.4 6.3 6.2 6.2 6.1 6.3 6.6 6.8 7.0 7.1 7.2 7.1 7.1 7.2 7.2 7.0 7.1 6.9 6.9 6.8 6.6 6.3 6.3 6.5 6.2 6.4 6.5 6.5 6.9 7.2 7.3 7.1 7.0 6.9
6.4 6.8 6.8 6.6 6.5 6.4 6.4 6.4 6.3 6.3 6.2 6.0 6.0 6.1 6.4 6.6 6.7 7.0 7.3 7.5 7.4 7.3 7.2 7.4 7.4 7.1 6.8 6.6 6.4 6.5 6.4 6.5 6.4 6.4 6.7 7.0 6.8 7.2 7.0 7.3 7.2 7.1 7.1
6.8 7.1 7.0 7.2 6.9 6.7 6.4 6.5 6.3 6.1 5.9 5.9 6.0 6.2 6.5 6.4 6.5 6.9 7.1 7.2 7.2 7.2 7.1 7.1 7.0 6.9 6.7 6.4 6.6 6.5 6.5 6.2 6.2 6.6 6.9 7.1 7.1 7.2 7.4 7.4 7.3 7.2 7.2
7.1 7.3 7.1 7.0 6.7 6.6 6.5 6.4 6.1 6.0 6.0 5.8 5.8 6.2 6.4 6.5 6.4 6.5 6.5 6.4 6.0 6.3 6.2 6.3 6.6 6.7 6.5 6.5 6.5 6.5 6.2 6.1 6.4 6.8 7.1 7.2 7.3 7.4 7.5 7.4 7.4 7.4 7.2
7.4 7.3 7.1 6.9 6.8 6.8 6.4 6.2 6.1 6.2 6.0 5.8 5.9 6.1 6.5 6.5 6.4 6.4 6.1 6.1 5.7 6.1 6.0 5.9 6.5 6.7 6.9 6.6 6.4 6.2 6.3 6.6 7.0 7.1 7.2 7.3 7.4 7.5 7.5 7.5 7.4 7.2 7.2
7.3 7.3 7.0 6.7 6.6 6.7 6.5 5.9 6.1 6.3 6.3 6.2 6.1 6.0 6.3 6.4 6.4 6.4 5.9 5.9 5.9 6.2 6.3 6.4 6.6 6.5 6.5 6.6 6.4 6.4 6.5 6.8 7.1 7.2 7.3 7.4 7.5 7.5 7.5 7.3 7.2 7.1 7.2
7.2 7.1 6.9 6.7 6.6 6.7 6.4 6.4 6.6 6.6 6.6 6.5 6.3 6.1 6.4 6.3 6.2 6.1 5.9 6.0 6.2 6.4 6.2 6.2 6.4 6.6 6.5 6.6 6.6 6.7 6.8 6.9 7.2 7.2 7.2 7.4 7.5 7.4 7.3 7.1 7.1 7.1 7.1
7.0 7.1 7.2 7.0 6.9 6.7 6.6 6.7 6.8 6.9 6.8 6.7 6.6 6.5 6.6 6.5 6.4 6.4 6.4 6.4 6.5 6.4 6.4 6.4 6.6 6.6 6.7 6.7 6.8 6.8 6.8 7.0 7.0 7.2 7.3 7.3 7.3 7.3 7.2 7.0 7.0 7.0 7.0
Wind_Speed
4 9 18 18 18 16 15 17 17 17 17 17 17 17 16 16 16 18 18 17 18 19 20 21 19 18 17 16 14 13 11 12 15 15 16 16 15 14 14 14 14 13 15
9 13 18 18 18 17 17 17 17 17 18 17 16 16 15 16 16 17 18 17 17 19 20 19 17 16 15 14 13 11 9 9 12 15 15 15 16 16 14 13 13 13 14
11 15 18 19 18 18 18 18 17 17 17 17 16 15 16 16 16 16 17 16 17 18 19 18 16 15 14 11 12 12 8 8 13 16 15 14 13 13 13 14 12 14 14
16 14 17 20 19 18 18 17 17 17 17 17 16 16 16 15 16 16 16 16 17 17 18 17 14 13 12 12 14 15 19 18 17 18 16 16 15 16 14 13 16 14 13
14 13 16 19 19 18 17 17 17 16 15 15 15 15 15 14 14 14 14 15 15 16 17 16 13 12 12 13 15 18 22 22 20 19 16 17 17 21 19 20 20 21 21
13 13 17 19 18 17 17 16 15 15 14 14 14 14 13 13 12 12 13 14 14 15 15 15 13 11 12 16 19 21 22 23 21 18 17 22 20 22 22 21 23 24 24
12 17 16 18 17 16 16 16 15 15 14 13 13 12 13 12 12 11 12 12 13 13 14 15 14 15 17 19 21 21 21 21 18 17 20 20 21 24 25 25 25 25 26
13 17 15 17 17 16 15 15 15 14 14 13 12 12 11 11 11 10 11 11 13 13 13 15 16 18 19 20 22 23 22 19 17 20 20 20 25 25 25 25 24 24 25
14 15 14 13 15 17 17 15 14 13 14 12 12 12 12 11 10 10 9 10 10 11 13 15 18 19 20 22 23 25 24 22 19 19 20 19 25 25 24 23 22 22 22
10 12 13 13 13 14 14 15 15 14 12 11 11 11 10 10 8 8 8 8 10 12 14 17 19 21 22 22 23 23 22 22 20 21 19 21 24 24 23 21 22 22 22
8 7 12 11 11 12 14 13 12 12 11 9 9 8 8 8 6 6 6 7 10 10 16 21 20 21 23 22 21 21 20 18 20 19 17 21 22 22 22 22 22 22 22
9 8 7 10 10 11 11 14 12 10 8 7 6 5 3 4 4 6 6 5 7 13 20 21 20 17 15 14 14 17 17 18 19 17 19 21 23 22 22 22 22 22 22
9 6 10 8 10 10 10 11 12 14 12 10 10 9 7 6 5 5 7 7 10 17 14 13 15 13 13 14 15 15 15 16 16 17 19 21 21 20 21 21 22 22 23
10 11 8 8 8 8 9 8 10 9 10 9 8 9 10 8 7 7 9 8 10 13 13 13 13 16 16 16 17 16 16 17 16 18 20 20 20 19 20 21 21 21 22
14 13 8 7 6 8 8 9 8 6 7 6 6 6 8 8 6 8 9 9 10 13 13 11 14 14 13 15 17 16 16 17 20 19 18 20 19 19 19 21 21 21 21
16 13 8 7 9 11 6 8 8 10 9 9 8 8 8 9 9 9 8 8 10 13 13 12 13 13 11 14 14 15 16 18 19 19 19 18 18 20 19 19 20 20 21
12 10 8 9 12 9 8 9 10 10 10 10 11 11 9 7 7 7 6 6 9 15 18 14 16 16 12 13 12 14 15 16 16 17 17 16 16 17 17 19 19 20 21
12 12 11 9 9 9 9 10 10 11 11 11 12 12 9 7 6 6 5 5 8 12 14 13 10 7 6 6 5 6 9 13 13 14 15 12 12 18 16 18 19 20 21
12 14 11 12 11 9 10 11 11 12 11 11 12 12 11 10 7 6 5 6 12 11 9 10 4 7 7 6 6 5 7 8 8 10 12 12 11 14 17 18 18 20 20
10 10 12 9 10 9 9 9 8 8 9 9 10 12 11 11 9 8 8 6 11 10 5 5 6 3 6 8 8 7 5 9 11 9 9 11 14 16 19 19 18 15 18
9 11 12 13 9 9 5 4 3 4 3 3 10 11 11 11 11 9 7 9 6 5 5 6 6 7 4 8 7 7 6 6 6 9 11 12 12 15 17 16 14 16 14
12 11 11 11 10 6 4 3 3 3 4 4 7 11 10 11 11 11 8 7 6 4 5 4 3 3 3 2 3 3 3 2 6 7 9 9 10 11 12 13 12 12 16
13 13 12 12 10 7 8 6 4 5 5 2 3 3 5 10 10 12 10 7 7 4 3 2 3 6 3 2 5 3 2 2 2 3 6 5 6 8 11 12 13 13 12
12 11 10 10 10 8 8 7 6 4 3 2 3 2 6 9 10 10 13 9 8 6 4 2 4 3 4 4 2 3 4 3 3 2 2 3 5 6 8 10 13 13 16
10 11 11 11 9 7 7 7 6 5 3 3 3 5 5 9 10 10 13 12 9 8 5 5 4 5 3 3 2 2 4 3 3 3 2 2 2 3 8 9 10 12 16
7 9 10 12 9 8 7 8 8 9 8 6 4 4 4 4 5 10 12 13 12 10 7 7 8 6 5 5 3 3 2 2 2 3 2 2 2 2 3 8 10 10 14
Wind_Direction
168 153 140 142 136 133 127 118 114 112 109 107 106 103 102 104 102 99 93 89 90 88 83 80 75 69 66 64 65 65 65 72 71 65 66 67 69 69 70 70 69 70 70
139 143 142 138 135 134 127 119 115 116 116 114 109 106 102 100 97 93 92 91 89 89 86 82 74 69 62 56 53 52 52 69 81 74 70 67 64 63 61 60 66 67 67
132 141 140 138 135 132 126 120 116 117 118 116 111 107 104 101 97 92 90 89 88 86 84 82 77 71 63 53 45 44 49 108 103 80 65 61 56 71 67 67 63 62 62
138 139 141 138 135 130 125 123 123 122 120 116 112 107 106 104 102 98 94 91 90 88 86 83 75 71 63 50 50 65 70 106 106 84 73 69 61 67 71 65 61 61 59
136 135 145 138 133 131 129 126 122 118 119 118 116 111 108 105 102 100 94 93 90 88 86 87 79 69 63 58 72 73 75 85 88 80 70 69 65 59 58 59 63 62 62
137 136 140 139 134 132 127 120 116 118 118 117 116 115 112 107 102 97 91 91 91 87 85 85 84 76 74 79 76 75 78 83 82 77 72 72 69 68 65 63 61 61 59
142 147 145 138 132 128 125 124 122 119 114 112 112 112 113 113 108 102 97 92 90 86 86 87 84 77 87 81 80 78 78 80 80 76 76 73 73 71 66 62 63 63 63
145 148 143 137 130 125 122 124 123 119 116 114 112 113 112 112 108 102 98 96 91 89 87 87 90 86 88 85 81 78 76 75 70 76 76 79 75 70 67 63 58 60 59
142 145 140 128 124 128 129 124 118 118 121 125 122 119 116 111 107 107 104 98 94 94 95 98 98 92 90 91 83 78 74 71 71 78 76 73 74 72 67 64 64 63 62
146 149 146 126 117 120 118 122 123 123 122 124 125 125 122 117 116 110 97 92 95 99 104 106 103 97 92 91 81 79 76 72 73 76 71 74 72 70 69 64 63 59 59
145 144 145 135 137 124 120 119 115 119 126 132 130 132 128 127 124 102 101 101 98 100 110 110 102 98 92 85 81 79 77 73 75 76 72 76 76 74 69 67 64 62 58
150 143 137 147 143 132 120 118 113 112 119 125 127 130 108 95 98 107 85 93 104 106 115 111 102 91 82 80 77 71 75 77 80 78 79 79 78 77 75 71 66 62 58
151 158 158 143 145 131 129 124 120 124 119 111 119 120 106 89 81 72 72 70 102 115 118 102 94 90 89 90 79 72 75 79 78 79 74 76 78 80 77 72 69 63 58
164 163 149 140 131 127 124 125 128 120 126 121 118 126 126 114 114 93 72 65 107 113 104 102 94 91 83 83 82 78 75 80 77 78 77 73 77 79 79 72 68 61 56
170 161 155 140 130 121 107 110 109 94 77 72 85 99 126 121 112 102 90 82 102 109 111 107 100 95 90 87 83 86 83 82 82 80 80 76 72 76 75 70 59 57 53
168 163 149 140 117 115 99 99 92 87 81 71 58 53 91 112 117 108 96 89 97 112 106 107 110 105 95 99 88 86 85 87 88 85 82 81 77 75 69 67 56 53 47
166 142 135 115 114 112 107 103 101 100 96 83 81 78 79 83 91 98 101 96 113 121 108 102 105 102 103 98 92 92 93 90 88 87 87 85 82 71 67 65 58 49 40
144 141 134 123 116 116 116 111 106 102 96 91 84 79 72 73 86 94 102 100 128 123 117 117 115 102 92 97 91 77 91 96 91 87 87 79 75 67 62 67 56 45 35
142 136 126 124 130 119 107 104 99 101 93 94 92 87 83 82 79 84 94 106 134 115 106 118 87 118 115 97 90 69 63 75 78 88 81 74 61 63 73 68 56 42 35
134 123 121 116 120 114 109 105 90 78 66 84 92 95 98 94 90 90 81 78 127 121 116 120 112 76 121 109 96 74 57 58 65 68 76 76 74 80 79 69 56 43 39
131 130 137 133 135 133 130 114 96 103 86 59 76 85 88 92 88 80 75 80 26 120 132 126 111 114 82 124 110 85 65 54 51 44 74 75 72 81 77 67 59 48 37
156 147 141 137 147 144 118 117 127 137 90 94 89 79 93 92 101 98 95 86 96 107 104 102 103 108 104 329 120 118 133 70 52 40 45 71 61 72 68 58 49 44 39
159 161 152 152 146 135 126 120 93 86 77 66 50 53 71 93 93 98 94 101 93 69 97 74 122 124 142 42 53 126 119 146 117 22 41 46 47 55 60 54 44 38 33
167 154 144 146 142 145 151 136 139 127 135 160 123 94 68 78 82 92 93 93 83 94 102 136 161 153 136 138 87 46 58 134 151 129 38 35 46 54 49 47 41 40 33
159 153 149 146 143 146 150 136 129 120 114 122 103 107 91 72 81 88 96 97 91 89 93 113 128 136 102 125 116 127 70 53 72 135 165 160 69 42 49 50 45 42 28
151 147 147 152 154 152 144 146 147 140 142 131 130 119 101 82 66 84 100 100 100 97 89 89 83 77 89 88 94 91 130 150 148 131 121 156 174 169 73 51 40 36 26